period_start,C,m1,H,J0,J1,J2,J3,J4,J5,JA,JB,JC,JD,JJ,JK,JN,#
2014-08-04 00:00:48,0.01,11.38,0.00,27.05,31.61,33.87,9.50,58.01,1005.39,2015.92,980.96,1520.99,1553.91,499.88,484.54,40.87,0000 0000 0000 0000 000000
2014-08-04 00:05:50,0.06,11.38,0.00,27.04,31.61,33.86,9.55,58.15,1005.39,2015.96,980.85,1520.96,1553.55,500.26,484.78,40.91,0000 0000 0000 0000 000000
2014-08-04 00:10:51,0.04,11.38,0.00,27.06,31.60,33.87,9.51,57.98,1005.39,2015.97,980.77,1520.81,1553.11,500.06,484.74,40.95,0000 0000 0000 0000 000000
2014-08-04 00:15:52,0.09,11.38,0.00,27.06,31.61,33.87,9.52,58.12,1005.39,2015.97,980.60,1520.37,1553.03,499.96,484.60,40.99,0000 0000 0000 0000 000000
2014-08-04 00:20:53,0.04,11.39,0.00,27.06,31.60,33.88,9.56,58.13,1005.39,2015.98,980.42,1520.08,1553.00,500.15,484.67,41.03,0000 0000 0000 0000 000000
2014-08-04 00:25:54,-0.04,11.39,0.00,27.05,31.60,33.87,9.58,58.09,1005.39,2015.97,980.53,1520.01,1553.00,500.15,484.71,41.08,0000 0000 0000 0000 000000
2014-08-04 00:30:56,-0.02,11.39,0.00,27.06,31.60,33.86,9.57,58.13,1005.38,2015.98,980.77,1520.00,1552.99,500.04,484.63,41.12,0000 0000 0000 0000 000000
2014-08-04 00:35:57,0.05,11.39,0.00,27.07,31.61,33.86,9.52,58.13,1005.39,2015.97,980.50,1520.00,1552.98,500.56,484.97,41.16,0000 0000 0000 0000 000000
2014-08-04 00:40:59,-0.02,11.39,0.00,27.05,31.61,33.87,9.57,58.08,1005.39,2015.97,980.68,1519.97,1552.63,500.40,485.04,41.20,0000 0000 0000 0000 000000
2014-08-04 00:46:00,0.06,11.39,0.00,27.07,31.61,33.86,9.55,58.08,1005.38,2015.97,980.46,1519.91,1552.43,499.75,484.32,41.24,0000 0000 0000 0000 000000
2014-08-04 00:51:01,0.04,11.39,0.00,27.09,31.61,33.88,9.56,58.01,1005.38,2015.98,980.75,1519.40,1552.05,499.95,484.43,41.29,0000 0000 0000 0000 000000
2014-08-04 00:56:02,0.03,11.39,0.00,27.08,31.62,33.86,9.54,58.10,1005.36,2015.97,980.70,1519.10,1552.01,499.68,484.34,41.33,0000 0000 0000 0000 000000
2014-08-04 01:01:03,-0.03,11.39,0.00,27.08,31.62,33.87,9.51,58.01,1005.38,2015.97,980.86,1519.01,1552.00,500.23,484.68,41.37,0000 0000 0000 0000 000000
2014-08-04 01:06:04,0.00,11.39,0.00,27.07,31.62,33.88,9.52,58.23,1005.37,2015.97,980.97,1519.00,1552.00,499.80,484.27,41.41,0000 0000 0000 0000 000000
2014-08-04 01:11:05,-0.01,11.39,0.00,27.09,31.62,33.87,9.57,58.17,1005.38,2015.94,980.98,1519.00,1551.98,499.91,484.55,41.45,0000 0000 0000 0000 000000
2014-08-04 01:16:07,-0.00,11.39,0.00,27.11,31.62,33.88,9.50,58.03,1005.38,2015.93,980.99,1519.00,1551.97,500.23,484.72,41.49,0000 0000 0000 0000 000000
2014-08-04 01:21:08,0.00,11.39,0.00,27.12,31.62,33.88,9.49,58.08,1005.39,2015.91,980.99,1518.99,1551.95,500.09,484.59,41.54,0000 0000 0000 0000 000000
2014-08-04 01:26:09,0.01,11.39,0.00,27.11,31.62,33.88,9.53,58.07,1005.39,2015.89,980.96,1518.97,1551.91,500.33,484.80,41.58,0000 0000 0000 0000 000000
2014-08-04 01:31:10,0.04,11.39,0.00,27.11,31.62,33.88,9.51,58.18,1005.39,2015.97,980.84,1518.93,1551.87,499.61,484.26,41.62,0000 0000 0000 0000 000000
2014-08-04 01:36:11,0.17,11.40,0.00,27.12,31.62,33.89,9.57,58.34,1005.39,2015.95,980.48,1518.42,1551.28,499.78,484.44,41.66,0000 0000 0000 0000 000000
2014-08-04 01:41:12,0.06,11.40,0.00,27.12,31.62,33.88,9.49,58.05,1005.39,2015.93,980.06,1518.03,1551.01,499.80,484.34,41.70,0000 0000 0000 0000 000000
2014-08-04 01:46:13,0.00,11.40,0.00,27.14,31.63,33.89,9.60,58.20,1005.39,2015.91,980.00,1517.99,1550.99,500.05,484.49,41.74,0000 0000 0000 0000 000000
2014-08-04 01:51:14,0.02,11.40,0.00,27.16,31.64,33.90,9.53,58.22,1005.39,2015.88,980.00,1517.82,1550.86,499.98,484.47,41.79,0000 0000 0000 0000 000000
2014-08-04 01:56:16,0.09,11.41,0.00,27.16,31.65,33.90,9.53,58.04,1005.39,2015.89,979.98,1517.29,1550.49,500.08,484.53,41.83,0000 0000 0000 0000 000000
2014-08-04 02:01:17,0.01,11.41,0.00,27.15,31.65,33.90,9.45,58.15,1005.39,2015.83,979.97,1517.02,1550.05,500.13,484.56,41.87,0000 0000 0000 0000 000000
2014-08-04 02:06:18,0.01,11.41,0.00,27.15,31.65,33.91,9.55,58.13,1005.39,2015.84,979.99,1517.00,1550.00,500.12,484.60,41.91,0000 0000 0000 0000 000000
2014-08-04 02:11:19,-0.01,11.41,0.00,27.18,31.65,33.91,9.56,58.13,1005.38,2015.80,979.99,1517.00,1550.00,500.15,484.58,41.95,0000 0000 0000 0000 000000
2014-08-04 02:16:20,-0.03,11.41,0.00,27.20,31.65,33.92,9.46,57.99,1005.37,2015.64,979.99,1516.95,1549.98,500.03,484.27,41.99,0000 0000 0000 0000 000000
2014-08-04 02:21:22,0.02,11.41,0.00,27.20,31.65,33.91,9.50,57.98,1005.39,2015.44,979.99,1516.69,1549.72,499.84,484.15,42.04,0000 0000 0000 0000 000000
2014-08-04 02:26:23,0.08,11.41,0.00,27.19,31.66,33.92,9.55,58.17,1005.39,2015.44,979.99,1516.19,1549.34,499.89,484.32,42.08,0000 0000 0000 0000 000000
2014-08-04 02:31:24,0.04,11.41,0.00,27.19,31.67,33.93,9.52,58.13,1005.39,2015.44,979.98,1516.03,1549.11,500.12,484.55,42.12,0000 0000 0000 0000 000000
2014-08-04 02:36:25,-0.06,11.41,0.00,27.21,31.67,33.93,9.51,58.27,1005.39,2015.17,979.99,1516.00,1549.00,499.84,484.31,42.16,0000 0000 0000 0000 000000
2014-08-04 02:41:27,0.00,11.41,0.00,27.20,31.67,33.94,9.53,58.26,1005.39,2015.17,979.99,1516.00,1549.00,500.06,484.45,42.20,0000 0000 0000 0000 000000
2014-08-04 02:46:28,0.00,11.41,0.00,27.21,31.67,33.94,9.54,58.19,1005.39,2015.13,979.98,1515.98,1548.99,500.08,484.31,42.24,0000 0000 0000 0000 000000
2014-08-04 02:51:29,-0.01,11.41,0.00,27.21,31.67,33.92,9.56,58.18,1005.39,2015.10,979.97,1515.94,1548.96,499.98,484.17,42.29,0000 0000 0000 0000 000000
2014-08-04 02:56:30,0.06,11.41,0.00,27.20,31.68,33.95,9.55,58.17,1005.39,2015.06,979.87,1515.69,1548.84,499.89,484.07,42.33,0000 0000 0000 0000 000000
2014-08-04 03:01:31,0.07,11.42,0.00,27.20,31.70,33.94,9.56,58.25,1005.39,2015.03,979.82,1515.19,1548.41,500.30,484.54,42.37,0000 0000 0000 0000 000000
2014-08-04 03:06:32,0.05,11.42,0.00,27.21,31.70,33.95,9.56,58.13,1005.39,2015.16,979.69,1515.11,1548.24,500.11,484.47,42.41,0000 0000 0000 0000 000000
2014-08-04 03:11:33,0.08,11.42,0.00,27.23,31.70,33.96,9.50,58.02,1005.39,2015.03,979.14,1515.00,1548.02,499.93,484.33,42.45,0000 0000 0000 0000 000000
2014-08-04 03:16:34,-0.00,11.42,0.00,27.25,31.70,33.95,9.55,58.20,1005.40,2015.00,979.05,1515.00,1548.00,500.37,484.65,42.49,0000 0000 0000 0000 000000
2014-08-04 03:21:35,0.01,11.42,0.00,27.25,31.70,33.97,9.48,58.14,1005.41,2015.00,979.01,1514.94,1547.99,499.72,483.97,42.54,0000 0000 0000 0000 000000
2014-08-04 03:26:37,0.01,11.42,0.00,27.26,31.72,33.98,9.48,58.14,1005.44,2015.00,979.00,1514.83,1547.98,499.95,484.21,42.58,0000 0000 0000 0000 000000
2014-08-04 03:31:38,0.04,11.42,0.00,27.26,31.72,33.98,9.53,58.02,1005.45,2015.00,978.99,1514.53,1547.92,500.02,484.24,42.62,0000 0000 0000 0000 000000
2014-08-04 03:36:39,0.04,11.43,0.00,27.27,31.72,33.99,9.56,58.21,1005.41,2015.00,978.99,1514.18,1547.80,500.25,484.64,42.66,0000 0000 0000 0000 000000
2014-08-04 03:41:41,0.02,11.43,0.00,27.25,31.72,33.99,9.57,58.17,1005.49,2015.00,978.99,1514.04,1547.51,499.95,484.27,42.70,0000 0000 0000 0000 000000
2014-08-04 03:46:42,0.02,11.43,0.00,27.25,31.72,33.99,9.53,58.32,1005.51,2015.00,978.96,1514.00,1547.16,500.08,484.44,42.74,0000 0000 0000 0000 000000
2014-08-04 03:51:43,0.02,11.43,0.00,27.27,31.74,34.00,9.46,58.28,1005.74,2015.00,978.89,1514.00,1547.02,499.37,483.79,42.79,0000 0000 0000 0000 000000
2014-08-04 03:56:44,0.01,11.43,0.00,27.26,31.75,34.01,9.52,58.29,1005.86,2015.00,978.81,1514.00,1547.00,500.14,484.71,42.83,0000 0000 0000 0000 000000
2014-08-04 04:01:46,0.01,11.43,0.00,27.29,31.75,34.02,9.53,58.16,1005.87,2015.00,978.78,1513.96,1546.99,500.31,484.63,42.87,0000 0000 0000 0000 000000
2014-08-04 04:06:47,0.02,11.43,0.00,27.30,31.75,34.01,9.50,58.05,1005.87,2014.99,978.64,1513.87,1546.98,500.01,484.37,42.91,0000 0000 0000 0000 000000
2014-08-04 04:11:47,0.06,11.43,0.00,27.28,31.75,34.01,9.54,58.19,1005.87,2014.99,978.68,1513.38,1546.90,500.38,484.81,42.95,0000 0000 0000 0000 000000
2014-08-04 04:16:49,0.08,11.44,0.00,27.30,31.75,34.02,9.56,58.20,1005.87,2014.99,978.38,1513.19,1546.80,500.28,484.67,43.00,0000 0000 0000 0000 000000
2014-08-04 04:21:50,-0.02,11.44,0.00,27.30,31.75,34.02,9.53,58.27,1005.87,2014.97,978.65,1513.05,1546.22,499.94,484.41,43.04,0000 0000 0000 0000 000000
2014-08-04 04:26:51,-0.01,11.44,0.00,27.30,31.76,34.02,9.56,57.98,1005.87,2014.94,978.73,1513.00,1546.02,500.10,484.58,43.08,0000 0000 0000 0000 000000
2014-08-04 04:31:52,0.04,11.44,0.00,27.30,31.77,34.03,9.53,58.25,1005.88,2014.88,978.46,1513.00,1546.00,499.67,484.06,43.12,0000 0000 0000 0000 000000
2014-08-04 04:36:54,-0.01,11.44,0.00,27.30,31.77,34.04,9.49,58.32,1005.87,2014.69,978.16,1512.98,1546.00,499.89,484.23,43.16,0000 0000 0000 0000 000000
2014-08-04 04:41:55,0.03,11.44,0.00,27.30,31.77,34.04,9.57,58.14,1005.88,2014.58,978.04,1512.98,1545.99,499.99,484.45,43.20,0000 0000 0000 0000 000000
2014-08-04 04:46:56,0.05,11.44,0.00,27.30,31.77,34.04,9.52,58.22,1005.89,2014.79,978.00,1512.94,1545.96,500.11,484.42,43.25,0000 0000 0000 0000 000000
2014-08-04 04:51:57,0.03,11.44,0.00,27.30,31.78,34.04,9.49,58.27,1005.93,2014.55,977.99,1512.38,1545.52,499.85,484.18,43.29,0000 0000 0000 0000 000000
2014-08-04 04:56:58,0.10,11.45,0.00,27.31,31.79,34.06,9.59,58.34,1006.00,2014.63,977.88,1512.06,1545.10,499.96,484.63,43.33,0000 0000 0000 0000 000000
2014-08-04 05:01:59,0.02,11.45,0.00,27.32,31.80,34.07,9.54,58.27,1006.27,2014.33,977.32,1512.00,1545.00,499.76,484.34,43.37,0000 0000 0000 0000 000000
2014-08-04 05:07:01,0.01,11.45,0.00,27.32,31.80,34.07,9.53,58.16,1006.36,2014.13,977.01,1511.99,1544.99,500.28,484.79,43.41,0000 0000 0000 0000 000000
2014-08-04 05:12:02,-0.00,11.45,0.00,27.33,31.80,34.06,9.56,58.22,1006.36,2014.11,977.00,1511.93,1544.92,500.14,484.75,43.45,0000 0000 0000 0000 000000
2014-08-04 05:17:03,0.08,11.45,0.00,27.34,31.80,34.07,9.56,58.23,1006.36,2014.06,976.99,1511.57,1544.40,499.87,484.46,43.50,0000 0000 0000 0000 000000
2014-08-04 05:22:04,0.06,11.45,0.00,27.33,31.80,34.07,9.54,58.20,1006.36,2014.02,976.89,1511.09,1544.04,500.04,484.68,43.54,0000 0000 0000 0000 000000
2014-08-04 05:27:06,0.09,11.46,0.00,27.33,31.80,34.07,9.51,58.21,1006.36,2014.02,976.34,1511.01,1544.00,499.99,484.50,43.58,0000 0000 0000 0000 000000
2014-08-04 05:32:07,0.02,11.46,0.00,27.33,31.82,34.07,9.52,58.36,1006.36,2014.00,976.07,1511.00,1544.00,499.95,484.45,43.62,0000 0000 0000 0000 000000
2014-08-04 05:37:08,0.01,11.46,0.00,27.35,31.82,34.09,9.57,58.36,1006.36,2014.01,976.00,1510.98,1543.95,499.80,484.46,43.66,0000 0000 0000 0000 000000
2014-08-04 05:42:09,0.08,11.46,0.00,27.35,31.82,34.08,9.57,58.37,1006.37,2014.00,975.93,1510.71,1543.43,500.02,484.56,43.71,0000 0000 0000 0000 000000
2014-08-04 05:47:11,0.18,11.47,0.00,27.33,31.82,34.08,9.55,58.30,1006.37,2014.00,975.26,1510.07,1543.02,500.31,484.80,43.75,0000 0000 0000 0000 000000
2014-08-04 05:52:12,0.02,11.47,0.00,27.33,31.82,34.09,9.60,58.19,1006.41,2014.00,975.00,1510.01,1543.00,500.13,484.72,43.79,0000 0000 0000 0000 000000
2014-08-04 05:57:13,0.01,11.47,0.00,27.29,31.82,34.10,9.56,58.34,1006.44,2014.00,974.94,1509.99,1542.93,500.06,484.72,43.83,0000 0000 0000 0000 000000
2014-08-04 06:02:15,0.17,11.48,0.00,27.20,31.82,34.12,9.54,58.21,1006.57,2014.00,974.37,1509.74,1542.34,500.29,485.17,43.87,0000 0000 0000 0000 000000
2014-08-04 06:07:16,0.09,11.48,0.00,27.10,31.82,34.14,9.57,58.31,1006.65,2014.00,974.01,1509.15,1542.02,500.14,485.32,43.91,0000 0000 0000 0000 000000
2014-08-04 06:12:17,0.00,11.48,0.00,27.00,31.81,34.17,9.55,58.35,1006.54,2014.00,973.98,1509.01,1542.00,500.43,485.51,43.96,0000 0000 0000 0000 000000
2014-08-04 06:17:19,0.04,11.48,0.00,26.93,31.80,34.24,9.60,58.39,1006.68,2014.00,973.81,1509.00,1542.00,500.53,485.74,44.00,0000 0000 0000 0000 000000
2014-08-04 06:22:20,0.08,11.49,0.00,26.85,31.77,34.24,9.56,58.38,1006.79,2014.02,973.18,1509.00,1541.98,499.78,485.51,44.04,0000 0000 0000 0000 000000
2014-08-04 06:27:21,0.02,11.49,0.00,26.80,31.75,34.15,9.58,58.53,1006.85,2014.01,973.03,1508.98,1541.93,499.33,485.07,44.08,0000 0000 0000 0000 000000
2014-08-04 06:32:22,0.04,11.49,0.00,26.75,31.73,34.13,9.56,58.52,1006.85,2014.09,973.00,1508.95,1541.74,499.95,485.73,44.12,0000 0000 0000 0000 000000
2014-08-04 06:37:23,0.14,11.50,0.00,26.74,31.70,34.12,9.55,58.45,1006.85,2014.42,972.96,1508.69,1541.24,499.66,485.37,44.16,0000 0000 0000 0000 000000
2014-08-04 06:42:24,0.21,11.50,0.00,26.75,31.67,34.06,9.62,58.50,1006.85,2014.67,972.53,1508.07,1541.01,499.91,485.58,44.21,0000 0000 0000 0000 000000
2014-08-04 06:47:25,0.04,11.51,0.00,26.78,31.65,33.96,9.58,58.46,1006.86,2014.71,972.05,1508.00,1540.98,499.90,485.62,44.25,0000 0000 0000 0000 000000
2014-08-04 06:52:27,0.04,11.51,0.00,26.80,31.62,33.86,9.57,58.24,1006.86,2014.94,972.00,1507.99,1540.91,499.80,485.45,44.29,0000 0000 0000 0000 000000
2014-08-04 06:57:28,0.03,11.51,0.00,26.84,31.60,33.84,9.59,58.37,1006.87,2014.97,971.99,1507.92,1540.57,500.50,486.08,44.33,0000 0000 0000 0000 000000
2014-08-04 07:02:29,0.12,11.52,0.00,26.87,31.59,33.80,9.55,58.55,1006.89,2014.99,971.93,1507.26,1540.07,500.11,485.67,44.37,0000 0000 0000 0000 000000
2014-08-04 07:07:30,0.07,11.52,0.00,26.90,31.57,33.77,9.52,58.47,1006.95,2014.99,971.61,1507.00,1540.00,500.11,485.79,44.41,0000 0000 0000 0000 000000
2014-08-04 07:12:32,0.05,11.52,0.00,26.90,31.55,33.76,9.49,58.49,1007.19,2015.00,971.17,1507.01,1540.00,499.61,485.34,44.46,0000 0000 0000 0000 000000
2014-08-04 07:17:33,0.01,11.52,0.00,26.91,31.55,33.74,9.59,58.48,1007.33,2015.02,971.01,1507.00,1540.00,500.24,485.99,44.50,0000 0000 0000 0000 000000
2014-08-04 07:22:34,0.00,11.52,0.00,26.93,31.52,33.74,9.56,58.43,1007.34,2015.04,971.00,1507.00,1540.00,499.82,485.65,44.54,0000 0000 0000 0000 000000
2014-08-04 07:27:35,0.03,11.52,0.00,26.95,31.52,33.73,9.51,58.43,1007.35,2015.18,971.00,1507.00,1540.00,499.91,485.62,44.58,0000 0000 0000 0000 000000
2014-08-04 07:32:36,0.01,11.53,0.00,26.97,31.52,33.73,9.52,58.39,1007.36,2015.24,970.95,1506.97,1539.96,499.56,485.19,44.62,0000 0000 0000 0000 000000
2014-08-04 07:37:37,0.09,11.53,0.00,26.99,31.50,33.74,9.57,58.53,1007.39,2015.40,970.89,1506.90,1539.90,499.79,485.45,44.66,0000 0000 0000 0000 000000
2014-08-04 07:42:38,0.11,11.53,0.00,27.00,31.50,33.73,9.53,58.41,1007.57,2015.48,970.57,1506.48,1539.52,499.84,485.68,44.71,0000 0000 0000 0000 000000
2014-08-04 07:47:40,0.18,11.54,0.00,27.00,31.50,33.74,9.57,58.37,1007.70,2015.67,970.11,1506.04,1539.08,500.29,486.10,44.75,0000 0000 0000 0000 000000
2014-08-04 07:52:41,-0.00,11.54,0.00,27.00,31.50,33.74,9.54,58.33,1007.78,2015.72,970.03,1506.00,1539.00,499.60,485.37,44.79,0000 0000 0000 0000 000000
2014-08-04 07:57:42,0.03,11.54,0.00,27.01,31.50,33.75,9.53,58.22,1007.80,2015.78,970.00,1505.99,1539.00,499.92,485.72,44.83,0000 0000 0000 0000 000000
2014-08-04 08:02:43,0.01,11.54,0.00,27.02,31.50,33.75,9.58,58.21,1007.82,2015.84,969.99,1505.96,1539.00,500.30,486.13,44.87,0000 0000 0000 0000 000000
2014-08-04 08:07:44,0.02,11.54,0.00,27.02,31.50,33.75,9.58,58.36,1007.83,2015.89,969.99,1505.93,1538.97,500.27,486.03,44.91,0000 0000 0000 0000 000000
2014-08-04 08:12:46,0.07,11.54,0.00,27.03,31.50,33.75,9.54,58.23,1007.82,2015.94,969.85,1505.73,1538.88,500.23,485.97,44.96,0000 0000 0000 0000 000000
2014-08-04 08:17:47,0.14,11.55,0.00,27.04,31.50,33.75,9.52,58.36,1007.82,2015.92,969.43,1505.12,1538.36,499.77,485.64,45.00,0000 0000 0000 0000 000000
2014-08-04 08:22:48,0.06,11.55,0.00,27.03,31.50,33.76,9.54,58.37,1007.82,2015.88,969.11,1505.01,1538.12,500.15,485.85,45.04,0000 0000 0000 0000 000000
2014-08-04 08:27:50,0.02,11.56,0.00,27.02,31.50,33.77,9.55,58.27,1007.83,2015.95,969.03,1505.00,1538.03,499.77,485.70,45.08,0000 0000 0000 0000 000000
2014-08-04 08:32:51,0.00,11.56,0.00,27.02,31.50,33.77,9.54,58.42,1007.83,2015.94,969.01,1505.00,1538.00,499.66,485.39,45.12,0000 0000 0000 0000 000000
2014-08-04 08:37:53,0.01,11.56,0.00,27.03,31.50,33.77,9.58,58.47,1007.83,2015.95,969.00,1504.96,1537.99,500.15,485.85,45.17,0000 0000 0000 0000 000000
2014-08-04 08:42:54,0.02,11.56,0.00,27.05,31.50,33.78,9.52,58.47,1007.84,2015.90,968.98,1504.73,1537.96,499.66,485.55,45.21,0000 0000 0000 0000 000000
2014-08-04 08:47:55,0.05,11.56,0.00,27.05,31.50,33.78,9.52,58.30,1007.84,2015.96,968.99,1504.42,1537.87,500.01,485.80,45.25,0000 0000 0000 0000 000000
2014-08-04 08:52:57,0.06,11.56,0.00,27.05,31.50,33.78,9.55,58.15,1007.84,2015.94,968.92,1504.11,1537.51,499.86,485.69,45.29,0000 0000 0000 0000 000000
2014-08-04 08:57:58,0.04,11.56,0.00,27.05,31.50,33.79,9.53,58.23,1007.86,2015.93,968.77,1504.00,1537.04,500.10,486.02,45.33,0000 0000 0000 0000 000000
2014-08-04 09:02:59,0.05,11.57,0.00,27.04,31.50,33.79,9.54,58.20,1007.93,2015.93,968.46,1504.00,1537.00,500.00,485.89,45.37,0000 0000 0000 0000 000000
2014-08-04 09:08:00,0.03,11.57,0.00,27.03,31.51,33.78,9.51,58.16,1007.93,2015.91,968.10,1504.00,1537.00,500.09,485.88,45.42,0000 0000 0000 0000 000000
2014-08-04 09:13:01,-0.05,11.57,0.00,27.02,31.51,33.79,9.45,58.24,1007.99,2015.69,968.02,1503.97,1537.00,499.43,485.40,45.46,0000 0000 0000 0000 000000
2014-08-04 09:18:02,0.05,11.57,0.00,27.01,31.51,33.80,9.60,58.27,1008.03,2015.77,968.01,1503.89,1536.97,500.61,486.57,45.50,0000 0000 0000 0000 000000
2014-08-04 09:23:04,0.03,11.57,0.00,27.01,31.51,33.79,9.56,58.44,1008.00,2015.66,968.00,1503.44,1536.91,499.97,485.88,45.54,0000 0000 0000 0000 000000
2014-08-04 09:28:05,0.05,11.57,0.00,27.01,31.51,33.78,9.59,58.61,1007.98,2015.62,968.00,1503.08,1536.56,499.71,485.60,45.58,0000 0000 0000 0000 000000
2014-08-04 09:33:07,0.01,11.57,0.00,27.01,31.51,33.80,9.57,58.27,1007.97,2015.49,967.98,1503.00,1536.13,499.95,486.01,45.62,0000 0000 0000 0000 000000
2014-08-04 09:38:08,0.04,11.57,0.00,26.97,31.50,33.80,9.54,58.34,1008.00,2015.57,967.88,1503.00,1536.02,499.74,485.85,45.67,0000 0000 0000 0000 000000
2014-08-04 09:43:09,0.05,11.58,0.00,26.95,31.50,33.81,9.58,58.27,1008.13,2015.66,967.64,1502.97,1536.00,500.00,485.96,45.71,0000 0000 0000 0000 000000
2014-08-04 09:48:10,0.08,11.58,0.00,26.96,31.50,33.79,9.49,58.14,1008.23,2015.73,967.24,1502.90,1536.00,499.72,485.97,45.75,0000 0000 0000 0000 000000
2014-08-04 09:53:11,0.05,11.58,0.00,26.95,31.50,33.80,9.63,58.30,1008.28,2015.79,967.06,1502.65,1536.00,500.11,486.30,45.79,0000 0000 0000 0000 000000
2014-08-04 09:58:12,0.07,11.58,0.00,26.95,31.50,33.78,9.55,58.17,1008.31,2015.93,967.01,1502.33,1536.00,499.73,485.83,45.83,0000 0000 0000 0000 000000
2014-08-04 10:03:14,0.01,11.59,0.00,26.95,31.50,33.79,9.57,58.29,1008.31,2015.89,967.01,1502.08,1535.97,499.90,486.07,45.87,0000 0000 0000 0000 000000
2014-08-04 10:08:15,0.01,11.59,0.00,26.92,31.50,33.78,9.55,58.20,1008.31,2015.92,967.00,1502.03,1535.97,499.73,486.12,45.92,0000 0000 0000 0000 000000
2014-08-04 10:13:16,0.01,11.59,0.00,26.94,31.50,33.78,9.58,58.35,1008.31,2015.93,967.00,1502.00,1535.94,499.96,486.06,45.96,0000 0000 0000 0000 000000
2014-08-04 10:18:17,0.02,11.59,0.00,26.93,31.50,33.78,9.57,58.57,1008.33,2015.95,966.98,1502.00,1535.79,499.76,485.88,46.00,0000 0000 0000 0000 000000
2014-08-04 10:23:18,0.02,11.59,0.00,26.91,31.49,33.77,9.56,58.53,1008.34,2015.98,966.99,1502.00,1535.43,500.20,486.47,46.04,0000 0000 0000 0000 000000
2014-08-04 10:28:19,0.01,11.59,0.00,26.89,31.48,33.78,9.60,58.58,1008.52,2015.96,966.93,1501.90,1535.14,499.70,486.04,46.08,0000 0000 0000 0000 000000
2014-08-04 10:33:21,0.23,11.60,0.00,26.88,31.47,33.76,9.60,58.49,1008.78,2015.90,966.09,1501.06,1534.96,500.28,486.69,46.13,0000 0000 0000 0000 000000
2014-08-04 10:38:22,0.01,11.60,0.00,26.85,31.47,33.76,9.59,58.46,1008.80,2015.83,966.01,1501.00,1534.77,499.79,486.35,46.17,0000 0000 0000 0000 000000
2014-08-04 10:43:23,0.00,11.60,0.00,26.85,31.47,33.76,9.59,58.41,1008.81,2015.83,966.00,1501.00,1534.81,500.10,486.51,46.21,0000 0000 0000 0000 000000
2014-08-04 10:48:25,0.01,11.60,0.00,26.86,31.47,33.75,9.56,58.42,1008.82,2015.95,966.00,1501.00,1534.82,499.92,486.41,46.25,0000 0000 0000 0000 000000
2014-08-04 10:53:26,0.01,11.60,0.00,26.85,31.46,33.75,9.54,58.65,1008.84,2015.94,966.00,1500.99,1534.60,499.50,486.19,46.29,0000 0000 0000 0000 000000
2014-08-04 10:58:27,0.01,11.60,0.00,26.85,31.45,33.73,9.57,58.62,1008.97,2015.94,965.99,1500.98,1534.58,500.19,486.81,46.33,0000 0000 0000 0000 000000
2014-08-04 11:03:28,0.00,11.60,0.00,26.82,31.45,33.73,9.56,58.56,1009.05,2015.93,965.97,1500.97,1534.49,500.08,486.85,46.38,0000 0000 0000 0000 000000
2014-08-04 11:08:29,0.01,11.60,0.00,26.83,31.45,33.72,9.55,58.64,1009.06,2015.93,965.96,1500.97,1534.35,499.86,486.53,46.42,0000 0000 0000 0000 000000
2014-08-04 11:13:30,0.03,11.60,0.00,26.83,31.44,33.72,9.54,58.88,1009.02,2015.97,965.91,1500.97,1534.24,499.38,486.02,46.46,0000 0000 0000 0000 000000
2014-08-04 11:18:31,0.01,11.60,0.00,26.81,31.42,33.72,9.63,58.94,1009.10,2015.97,965.74,1500.94,1534.21,500.18,486.90,46.50,0000 0000 0000 0000 000000
2014-08-04 11:23:32,0.09,11.61,0.00,26.79,31.42,33.72,9.59,58.75,1009.23,2015.98,965.39,1500.83,1534.10,499.80,486.67,46.54,0000 0000 0000 0000 000000
2014-08-04 11:28:34,0.01,11.61,0.00,26.77,31.42,33.69,9.59,58.80,1009.24,2015.98,965.26,1500.72,1534.08,499.80,486.70,46.58,0000 0000 0000 0000 000000
2014-08-04 11:33:35,0.02,11.61,0.00,26.75,31.40,33.69,9.59,58.72,1009.28,2015.99,965.09,1500.78,1534.10,499.57,486.66,46.63,0000 0000 0000 0000 000000
2014-08-04 11:38:36,0.01,11.61,0.00,26.75,31.40,33.69,9.60,58.73,1009.29,2015.99,965.03,1500.75,1534.08,500.15,487.15,46.67,0000 0000 0000 0000 000000
2014-08-04 11:43:38,0.02,11.61,0.00,26.75,31.40,33.67,9.57,58.93,1009.29,2015.99,965.00,1500.58,1534.06,499.95,487.01,46.71,0000 0000 0000 0000 000000
2014-08-04 11:48:39,-0.01,11.61,0.00,26.72,31.39,33.66,9.65,58.94,1009.29,2015.99,965.00,1500.65,1534.08,500.40,487.45,46.75,0000 0000 0000 0000 000000
2014-08-04 11:53:40,0.02,11.61,0.00,26.71,31.37,33.65,9.55,58.78,1009.29,2015.99,965.00,1500.54,1534.05,500.18,487.23,46.79,0000 0000 0000 0000 000000
2014-08-04 11:58:41,0.00,11.61,0.00,26.70,31.37,33.65,9.65,58.76,1009.29,2015.99,965.00,1500.50,1534.07,500.23,487.11,46.83,0000 0000 0000 0000 000000
2014-08-04 12:03:42,-0.02,11.61,0.00,26.69,31.37,33.63,9.58,58.71,1009.29,2015.99,965.00,1500.63,1534.14,500.18,487.23,46.88,0000 0000 0000 0000 000000
2014-08-04 12:08:43,-0.01,11.61,0.00,26.67,31.36,33.63,9.58,58.63,1009.29,2015.99,965.00,1500.69,1534.21,500.07,487.20,46.92,0000 0000 0000 0000 000000
2014-08-04 12:13:44,0.03,11.61,0.00,26.67,31.35,33.62,9.60,58.75,1009.29,2016.00,965.00,1500.53,1534.11,500.25,487.40,46.96,0000 0000 0000 0000 000000
2014-08-04 12:18:45,0.04,11.61,0.00,26.65,31.35,33.62,9.62,58.89,1009.28,2016.00,965.00,1500.33,1534.06,499.81,486.86,47.00,0000 0000 0000 0000 000000
2014-08-04 12:23:47,0.02,11.61,0.00,26.65,31.33,33.61,9.55,58.91,1009.23,2016.00,964.97,1500.01,1534.00,499.63,486.77,47.04,0000 0000 0000 0000 000000
2014-08-04 12:28:48,0.00,11.61,0.00,26.63,31.32,33.60,9.60,58.83,1009.23,2016.01,964.97,1500.01,1534.00,500.16,487.31,47.08,0000 0000 0000 0000 000000
2014-08-04 12:33:50,-0.00,11.61,0.00,26.62,31.32,33.58,9.54,58.97,1009.14,2016.02,964.97,1500.01,1534.00,500.01,487.43,47.13,0000 0000 0000 0000 000000
2014-08-04 12:38:51,0.02,11.61,0.00,26.60,31.30,33.57,9.59,58.88,1009.19,2016.04,964.91,1500.00,1534.00,500.34,487.41,47.17,0000 0000 0000 0000 000000
2014-08-04 12:43:52,-0.01,11.61,0.00,26.58,31.30,33.57,9.65,58.98,1009.20,2016.02,964.88,1500.00,1534.00,500.13,487.29,47.21,0000 0000 0000 0000 000000
2014-08-04 12:48:53,0.01,11.61,0.00,26.56,31.29,33.56,9.61,59.03,1009.22,2016.07,964.91,1500.00,1534.00,499.55,486.78,47.25,0000 0000 0000 0000 000000
2014-08-04 12:53:54,0.01,11.61,0.00,26.56,31.27,33.56,9.63,58.84,1009.24,2016.09,964.88,1500.00,1534.00,500.27,487.58,47.29,0000 0000 0000 0000 000000
2014-08-04 12:58:55,0.02,11.61,0.00,26.53,31.27,33.54,9.60,58.88,1009.22,2016.16,964.83,1500.00,1534.00,500.29,487.62,47.33,0000 0000 0000 0000 000000